Simultaneous Nadir Overpasses (SNOs) Predictions

Prediction of SNOs between GOES-17 and AQUA Satellite Orbit:

Table of predicted SNOs for the next 14.0 days since TLE Epoch: 1/18/2020
Index Date Time (GOES-17) GOES-17 Lat,Lon AQUA Lat,Lon Distance(km) Time Diff (sec)
1 01/18/2020 22:33:43 -0.03,-137.22 0.45,-134.95 258.44 80
2 01/19/2020 10:57:37 0.04,-137.21 0.66,-140.10 328.10 80
3 01/21/2020 10:45:26 0.04,-137.21 0.05,-137.14 7.79 80
4 01/23/2020 10:30:37 0.05,-137.19 -0.61,-134.19 342.17 80
5 01/23/2020 22:54:40 -0.05,-137.19 -0.55,-139.37 248.33 80
6 01/25/2020 22:39:50 -0.06,-137.18 0.13,-136.42 86.19 80
7 01/27/2020 22:27:39 -0.06,-137.16 0.74,-133.47 420.32 80
8 01/28/2020 10:51:34 0.06,-137.15 0.37,-138.62 166.56 80
9 01/30/2020 10:36:43 0.06,-137.13 -0.25,-135.66 167.08 80
10 01/30/2020 23:00:48 -0.07,-137.12 -0.83,-140.85 423.78 80




NCC Satellite Simultaneous Nadir Overpasses (SNOs) Prediction Service
